This is the latest recevied weather packets stored in our database for station/object CT4TX-11. If no packets are shown the sender has not sent any weather packets the latest 10 day(s).
| Time | Temp. | Humidity | Pressure | Rain* | Wind** | Luminosity | Snow |
|---|---|---|---|---|---|---|---|
| 1777998884 | 25° C | 37% | 1003.4 hPa | - | - | - | - |
| 1777997983 | 25° C | 36% | 1003.5 hPa | - | - | - | - |
| 1777997083 | 24.44° C | 39% | 1003.4 hPa | - | - | - | - |
| 1777996183 | 24.44° C | 37% | 1003.5 hPa | - | - | - | - |
| 1777995287 | 24.44° C | 38% | 1003.4 hPa | - | - | - | - |
| 1777994387 | 25° C | 38% | 1003.5 hPa | - | - | - | - |
| 1777993487 | 25° C | 38% | 1003.5 hPa | - | - | - | - |
| 1777992587 | 25° C | 38% | 1003.6 hPa | - | - | - | - |
| 1777991686 | 25° C | 39% | 1003.7 hPa | - | - | - | - |
| 1777990786 | 24.44° C | 39% | 1003.8 hPa | - | - | - | - |
| 1777989886 | 24.44° C | 39% | 1003.8 hPa | - | - | - | - |
| 1777988986 | 24.44° C | 40% | 1003.8 hPa | - | - | - | - |
| 1777988085 | 23.89° C | 41% | 1003.9 hPa | - | - | - | - |
| 1777987185 | 23.33° C | 43% | 1003.9 hPa | - | - | - | - |
| 1777986285 | 23.33° C | 43% | 1003.9 hPa | - | - | - | - |
| 1777985385 | 23.33° C | 43% | 1004 hPa | - | - | - | - |
| 1777984485 | 23.33° C | 42% | 1003.9 hPa | - | - | - | - |
| 1777983584 | 23.33° C | 43% | 1004.1 hPa | - | - | - | - |
| 1777982684 | 23.33° C | 43% | 1004.3 hPa | - | - | - | - |
| 1777981784 | 23.33° C | 43% | 1004.4 hPa | - | - | - | - |
| 1777980884 | 23.33° C | 43% | 1004.5 hPa | - | - | - | - |
| 1777979983 | 23.33° C | 43% | 1004.5 hPa | - | - | - | - |
| 1777979083 | 23.33° C | 43% | 1004.6 hPa | - | - | - | - |
| 1777978183 | 23.33° C | 43% | 1004.7 hPa | - | - | - | - |
| 1777977283 | 23.33° C | 43% | 1004.6 hPa | - | - | - | - |
* Rain since midnight (hover to see other rain measurements)
** Current wind speed in m/s (hover to see current wind gust speed)